STARLINK-34400, 64463

Orbit data source: Space-Track

STARLINK-34400, 64463 is a payload satellite owned by SpaceX/Seattle (US) in LEO that was launched on Wed, 18 Jun 2025 UTC via an FALCON 9 launch vehicle from the Air Force Eastern Test Range (AFETR). Payload-class satellites include a variety of spacecraft equipped with specific instruments for various scientific and technological missions. These include communications satellites like Starlink; space stations such as the ISS; scientific satellites like the Hubble; Earth observation satellites from companies like Planet Labs, Umbra, and HawkEye 360; GPS; miniature CubeSats for education and research; and military/defense satellites.

Loading next visibility...
Identifier
64463, 2025-130AB
Orbit
LEO
Country
Flag of USUS
Related business
Manufacturer
SpaceX/Seattle
Mission
Operational Commercial Communications
Bus & Motor
STARLINK V2MO, Unknown motor
Mass
575 kg wet, ~530 kg dry
Launch date (UTC)
2025-06-18 (1 year ago)
Launch vehicle
FALCON 9
Launch site
Air Force Eastern Test Range (AFETR)
Object type
Payload
Rocket body
Debris
Shape & HBR
Box + 2 Pan, 17.7 m
Radar Cross Section
36.964 m², Large (>1 m²)

Expand to show TLE details & history
Last TLE update: 23 hours ago

TLE from 23 hours ago
0 STARLINK-34400
1 64463U 25130AB  26170.87020891  .00021863  00000-0  71314-3 0  9994
2 64463  53.1607 336.3087 0001040  73.5249 286.5866 15.31748887 56310
Epoch: 2026-06-19T20:53Z
TLE epoch observation values (Epoch: 2026-06-19T20:53:06.049Z)
Latitude
-0.00009°
Longitude
114.94044°
Altitude
471.291 km
Speed
7.632 km/s
True Right ascension
22h 25m 14s
True Declination
0° 00' 00"
Sunlit
Object was in daylight at epoch
Visualization orbit readout
Latitude
Unknown
Longitude
Unknown
Altitude
Unknown
Speed
Unknown
Apparent Right ascension
Unknown
Apparent Declination
Unknown
Sunlit
N/A
Visualization observer readout
Local Sidereal Time
07:12:22
Azimuth
Unknown
Elevation
Unknown
Doppler factor
Unknown
Orbital elements
Apogee altitude
471.563 km
Perigee altitude
470.138 km
Semi-major axis
6,848.988 km
Eccentricity
0.0001
Inclination
53.1607°
RAAN
336.3087°
Arg. of periapsis
73.5249°
True anomaly
286.57518°
Mean anomaly
286.5866°
Eccentric anomaly
286.58089°
Mean motion
3.82916 °/min
Orbital period
94.02 mins
BSTAR
0.00071314
Loading maneuver chart data...
Computing Atmospheric mass density...
Loading historical data...
Loading historical data...
Loading historical data...
Loading historical data...
Loading historical data...
Loading historical data...
Loading historical data...

Documentation

Showing up to 5 results
|